Regional Weather Roundup
Issued by NWS Charleston, SC

Current Version | Previous Version | Graphics & Text | Print | Product List | Glossary On
Versions: 1 2 3 4 5 6 7 8 9 10 11 12 13 14 15 16 17 18 19 20 21 22 23 24 25 26 27 28 29 30 31 32 33 34 35 36 37 38 39 40 41 42 43 44 45 46 47 48 49 50
000
ASUS42 KCHS 202212
RWRCHS

REGIONAL WEATHER ROUNDUP
NATIONAL WEATHER SERVICE CHARLESTON SC
500 PM EST MON NOV 20 2017

NOTE: "FAIR" INDICATES FEW OR NO CLOUDS BELOW 12,000 FEET WITH NO
SIGNIFICANT WEATHER AND/OR OBSTRUCTIONS TO VISIBILITY.

NOT ALL STATIONS ARE QUALITY CONTROLLED. USE DATA WITH CAUTION...
ESPECIALLY DEWPOINT OBSERVATIONS.

SCZ027-030-031-034>040-042>050-202300-
...SOUTHEAST SOUTH CAROLINA...

CITY           SKY/WX    TMP DP  RH WIND       PRES   REMARKS
N CHARLESTON   MOCLDY    55  39  54 SE9       30.23R
WATERFRONT PRK NOT AVBL
JOHNS ISLAND   FAIR      54  41  62 E3        30.24R
PINOPOLIS        N/A     57  41  54 CALM      30.13F
MONCKS CORNER  FAIR      52  37  58 CALM      30.22S
SUMMERVILLE    FAIR      57  36  44 CALM      30.23S
BEAUFORT MCAS  MOCLDY    56  43  61 SE5       30.24R
BEAUFORT ARPT  FAIR      54  39  58 E6        30.23S HAZE
HILTON HEAD IS CLEAR     57  41  54 NE7       30.24R
WALTERBORO     PTCLDY    55  36  47 CALM      30.23S
ALLENDALE      FAIR      57  34  41 S3        30.21S

...SOUTHERN MIDLANDS AND PEE DEE...

CITY           SKY/WX    TMP DP  RH WIND       PRES   REMARKS
GEORGETOWN     FAIR      52  39  62 CALM      30.24S
KINGSTREE      FAIR      50  34  53 CALM      30.23S
ORANGEBURG     PTCLDY    56  32  40 SE6       30.22S
BARNWELL         N/A     59  32  36 SE6       30.22R
AIKEN          FAIR      54  28  37 SE5       30.24S
MANNING        FAIR      54  43  66 MISG      30.22F
COLUMBIA       PTCLDY    58  29  33 E6        30.21S
SUMTER         CLEAR     57  27  31 CALM      30.19F
FLORENCE       CLEAR     56  26  31 SE3       30.23F
MYRTLE BEACH   PTCLDY    53  39  59 CALM      30.25S
N MYRTLE BEACH CLEAR     52  41  66 CALM      30.23S

$$

GAZ063-065-086>088-099>101-113>116-118-119-134>141-150-202300-
...SOUTHEAST GEORGIA...

CITY           SKY/WX    TMP DP  RH WIND       PRES   REMARKS
SAVANNAH ARPT  MOCLDY    58  42  55 E8        30.23R
HUNTER AAF     PTCLDY    57  42  57 NE7       30.20R
FORT STEWART   CLEAR     59  46  63 E8        30.19S
STATESBORO     PTCLDY    60  28  30 SE3       30.21S
SYLVANIA       PTCLDY    59  38  44 SE5       30.22S
CLAXTON        FAIR      62  36  38 NE7       30.21S

...CSRA...CENTRAL AND FAR SOUTHEAST GEORGIA...

CITY           SKY/WX    TMP DP  RH WIND       PRES   REMARKS
THOMSON        CLEAR     56  31  38 S5        30.24F
AUGUSTA-BUSH   CLEAR     58  29  33 E5        30.20S
AUGUSTA-DANIEL CLOUDY    59  29  31 E5        30.21S
SWAINSBORO     FAIR      59  34  38 CALM      30.21R
VIDALIA        CLEAR     59  37  44 E5        30.20R
EASTMAN        FAIR      60  20  21 CALM      30.21S
HAZLEHURST     FAIR      62  22  21 E3        30.17S
ALMA           CLOUDY    65  50  58 E3        30.16S
WAYCROSS       CLOUDY    66  49  55 E10       30.16S
JESUP          FAIR      63  48  59 CALM      30.20R
BAXLEY         CLOUDY    61  43  51 NE5       30.18R
BRUNSWICK      CLEAR     61  50  67 NE10G16   30.19F
SAINT SIMONS   PTCLDY    63  53  70 NE10      30.18S

$$

SCZ027-028-034-036>038-045-046-048>050-GAZ119-141-202300-
...LAKE AND SUPPLEMENTAL COASTAL OBSERVATIONS...

STATION/POSITION TIME  TEMP    WIND        PRES    WAVE   SWELL
                       AIR SEA DIR/SP/G            HT/PER HT/PER/DIR
                 (UTC) (F)     (DEG/KT/KT) (MB)    (FT/S) (FT/S/D)
WINYAH BAY       2045   56     110/  4     1024.0
LAKE MURRAY      2120   62     140/  4/  5 1022.0F
ACE BASIN NERRS  2045   58     110/  3     1023.0
FORT PULASKI     2148   57 61   70/ 12/ 14 1023.8R
SAPELO ISLAND    2100   63      50/ 10     1022.0

$$

ANZ835-935-AMZ111-154-330-350-352-354-370-450-454-472-202300-
...C-MAN AND BUOY OBSERVATIONS...

STATION/POSITION TIME  TEMP    WIND        PRES    WAVE   SWELL
                       AIR SEA DIR/SP/G            HT/PER HT/PER/DIR
                 (UTC) (F)     (DEG/KT/KT) (MB)    (FT/S) (FT/S/D)
BUOY 41004       2150   60 73   60/ 12/ 16 1023.1R   4/ 5   2/ 60/ 6
BUOY 41008       2150   63 67   70/ 14/ 17 1022.2R   4/ 5   2/ 60/13
FOLLY BEACH CMAN 2100   56      70/ 10/ 11 1024.3F
CAPERS NEARSHORE 2108   55 62   80/ 12/ 17 1023.5F
FRIPP NEARSHORE  2108   56 61   60/ 12/ 17 1022.9R


STATION/POSITION TIME  TEMP    WIND        PRES    WAVE   SWELL
                       AIR SEA DIR/SP/G            HT/PER HT/PER/DIR
                 (UTC) (F)     (DEG/KT/KT) (MB)    (FT/S) (FT/S/D)
5E ST. MARYS GA  2130      67                N/A     4/ 5
FRYING PAN BUOY  2150   56 69   50/  8/ 10 1023.9R   3/ 5   2/ 20/ 5
BUOY 41025       2150   53 66  350/ 10/ 12 1024.2R   3/ 9   3/ 70/ 9
CAPE LOOKOUT NC  2100          360/  4/  4 1024.3R
BUOY 41002       2150   67 77   40/ 14/ 17 1021.9R   5/ 8   3/ 8
BUOY 41010       NOT AVBL
ST AUGUSTINE FL  2200   70 67   80/ 14/ 16 1020.8R


$$




USA.gov is the U.S. government's official web portal to all federal, state and local government web resources and services.